World > North America > United States > Ohio

Versailles, Ohio Regional Weather

Lat: 40.22N, Lon: 84.48W
Wx Zone: OHZ042Web Search

Ads allow us to feed your daily addiction for the world's greatest weather information. We're determined to offer quality sponsors, in the least annoying way possible.

Feedback


°F Click to change Versailles hourly weather to Imperial units.Click to change Versailles hourly weather to Metric units. °C
Versailles Weather Map
UTC Time: 5/6/2021, 03:48
Your Time:

Versailles, OH Regional Weather

Expires:202105060400;;663605
ASUS41 KCLE 060312
RWRCLE
OHIO REGIONAL WEATHER ROUNDUP
NATIONAL WEATHER SERVICE WILMINGTON, OH
1100 PM EDT WED MAY 05 2021

NOTE: "FAIR" INDICATES FEW OR NO CLOUDS BELOW 12,000 FEET WITH NO
SIGNIFICANT WEATHER AND/OR OBSTRUCTIONS TO VISIBILITY.


OHZ042-051>053-060>062-070>072-077>081-060400-
  SOUTHWEST OHIO
  
CITY           SKY/WX    TMP DP  RH WIND       PRES   REMARKS
CINC-COVINGTON FAIR      50  35  56 NW7       30.14R                  
CINC-LUNKEN    FAIR      46  44  93 CALM      30.15R                  
HAMILTON       FAIR      46  40  79 NW5       30.15R                  
DAYTON         FAIR      49  35  58 NW6       30.14R                  
WRIGHT-PAT AFB CLOUDY    47  40  78 CALM      30.13R                  
DAYTON GENERAL FAIR      50  37  61 CALM      30.13R                  
WILMINGTON     FAIR      45  39  79 NE5       30.13R                  
$$


SKY/WX - Weather  TMP - Temperature  DP - Dew Point  RH - Relative Humidity
WIND - Wind Direction/Speed PRES - Barometric Pressure VSB - Visibility
WCI - Wind Chill Index E13G22 Wind - East Wind 13 mph/Gusts of 22 mph